GW5575 Weather Reports


time (UTC)temp
F
wind
direction
speed
knots
gust
knots
rain 1hr
in
rain 24hr
in
rain mn
in
humidity
%
barometer
mb
20260505004407 28 276 11.3 12.2 0.00 0.00 0.00 91 1016.2
20260505003904 28 279 11.3 12.2 0.00 0.00 0.00 92 1016.6
20260505003401 28 273 13.9 14.8 0.00 0.00 0.00 91 1016.5
20260505002857 29 280 12.2 13.0 0.00 0.00 0.00 90 1016.5
20260505002354 29 276 12.2 13.0 0.00 0.00 0.00 91 1016.5
20260505001853 29 299 7.0 7.0 0.00 0.00 0.00 93 1016.6
20260505001349 29 288 9.6 11.3 0.00 0.00 0.00 93 1016.8
20260505000846 29 273 10.4 11.3 0.00 0.00 0.00 91 1016.9
20260505000344 28 256 11.3 12.2 0.00 0.00 0.00 92 1016.8
20260504235840 28 247 11.3 11.3 0.00 0.00 0.00 94 1017.1
20260504235338 28 252 10.4 11.3 0.00 0.00 0.00 94 1016.9
20260504234834 28 248 13.9 14.8 0.00 0.00 0.00 94 1017.1
20260504234332 27 236 14.8 14.8 0.00 0.00 0.00 97 1016.5
20260504233828 27 253 13.0 14.8 0.00 0.00 0.00 97 1016.9
20260504233324 26 260 11.3 12.2 0.00 0.00 0.00 97 1017.2
20260504232821 26 254 15.6 17.4 0.00 0.00 0.00 97 1017.4
20260504232318 27 284 10.4 11.3 0.00 0.00 0.00 97 1017.2
20260504231815 26 252 7.0 7.0 0.00 0.00 0.00 97 1017.7
20260504231312 26 263 6.1 7.0 0.00 0.00 0.00 97 1017.4
20260504230808 27 302 3.5 4.3 0.00 0.00 0.00 97 1017.5
20260504230306 26 278 6.1 7.0 0.00 0.00 0.00 97 1017.4
20260504225804 26 275 7.0 8.7 0.00 0.00 0.00 96 1017.5
20260504225300 27 275 14.8 15.6 0.00 0.00 0.00 96 1017.5
20260504224757 27 276 17.4 19.1 0.00 0.00 0.00 95 1017.4
20260504224255 28 272 22.6 23.5 0.00 0.00 0.00 91 1016.8
20260504223751 29 283 16.5 18.2 0.00 0.00 0.00 86 1017.4
20260504223247 30 278 18.2 21.7 0.00 0.00 0.00 79 1016.9
20260504222744 31 320 10.4 13.0 0.00 0.00 0.00 81 1017.1
20260504222240 31 270 13.0 15.6 0.00 0.00 0.00 76 1016.8
20260504221738 31 290 9.6 9.6 0.00 0.00 0.00 76 1017.2
20260504221235 31 277 10.4 13.0 0.00 0.00 0.00 76 1017.4
20260504220731 32 281 8.7 9.6 0.00 0.00 0.00 76 1017.5
20260504220229 32 248 7.8 7.8 0.00 0.00 0.00 74 1017.5
20260504215726 31 287 6.1 7.0 0.00 0.00 0.00 79 1017.4
20260504215223 32 288 7.0 7.0 0.00 0.00 0.00 77 1017.2
20260504214718 31 281 7.0 7.8 0.00 0.00 0.00 77 1017.2
20260504214215 31 152 9.6 9.6 0.00 0.00 0.00 76 1017.4
20260504213712 32 116 7.8 8.7 0.00 0.00 0.00 78 1017.5
20260504213208 32 285 11.3 13.0 0.00 0.00 0.00 79 1017.5
20260504212705 32 275 7.0 8.7 0.00 0.00 0.00 79 1017.5
20260504212202 31 267 11.3 12.2 0.00 0.00 0.00 79 1017.9
20260504211659 32 285 13.9 14.8 0.00 0.00 0.00 77 1017.9
20260504211155 31 238 6.1 7.8 0.00 0.00 0.00 78 1017.7
20260504210653 30 257 8.7 8.7 0.00 0.00 0.00 77 1017.9
20260504210149 30 254 10.4 11.3 0.00 0.00 0.00 75 1018.1
20260504205647 30 294 7.8 8.7 0.00 0.00 0.00 75 1017.9
20260504205144 30 286 11.3 12.2 0.00 0.00 0.00 78 1017.9
20260504204643 31 286 13.9 14.8 0.00 0.00 0.00 75 1018.2
20260504204141 31 250 13.9 15.6 0.00 0.00 0.00 72 1017.9
20260504203639 31 283 16.5 18.2 0.00 0.00 0.00 70 1017.9
20260504203137 32 295 13.9 14.8 0.00 0.00 0.00 68 1018.1
20260504202637 32 295 14.8 15.6 0.00 0.00 0.00 65 1018.1
20260504202134 32 286 13.0 13.9 0.00 0.00 0.00 65 1017.7
20260504201631 32 255 11.3 14.8 0.00 0.00 0.00 65 1017.9
20260504201129 32 282 13.0 14.8 0.00 0.00 0.00 56 1018.1
20260504200626 32 293 13.0 14.8 0.00 0.00 0.00 62 1018.1
20260504200122 32 45 13.0 13.9 0.00 0.00 0.00 59 1017.8
20260504195618 32 280 12.2 12.2 0.00 0.00 0.00 64 1018.1
20260504195114 32 295 14.8 17.4 0.00 0.00 0.00 62 1017.8
20260504194611 33 258 13.9 14.8 0.00 0.00 0.00 61 1017.9
20260504194107 33 257 20.0 22.6 0.00 0.00 0.00 59 1018.1
20260504193603 33 281 11.3 14.8 0.00 0.00 0.00 58 1018.1
20260504193102 33 266 15.6 19.1 0.00 0.00 0.00 61 1017.9
20260504192600 32 282 9.6 11.3 0.00 0.00 0.00 61 1018.1
20260504192058 32 271 13.9 13.9 0.00 0.00 0.00 64 1017.9
20260504191556 32 265 14.8 17.4 0.00 0.00 0.00 64 1018.1
20260504191051 32 265 10.4 12.2 0.00 0.00 0.00 66 1018.5
20260504190548 33 289 8.7 8.7 0.00 0.00 0.00 67 1018.5
20260504190044 31 277 11.3 13.0 0.00 0.00 0.00 66 1018.4
20260504185541 31 260 13.9 14.8 0.00 0.00 0.00 64 1018.5
20260504185038 31 279 11.3 13.9 0.00 0.00 0.00 68 1018.7
20260504184533 30 268 7.0 7.0 0.00 0.00 0.00 76 1018.8
20260504184029 29 266 7.0 7.8 0.00 0.00 0.00 77 1018.8
20260504183526 29 284 11.3 12.2 0.00 0.00 0.00 80 1019.0
20260504183024 28 302 11.3 13.0 0.00 0.00 0.00 86 1019.0
20260504182520 27 284 9.6 9.6 0.00 0.00 0.00 90 1019.1
20260504182018 27 274 13.9 14.8 0.00 0.00 0.00 90 1018.8
20260504181515 28 279 14.8 18.2 0.00 0.00 0.00 87 1019.3
20260504181014 28 289 16.5 19.1 0.00 0.00 0.00 85 1018.8
20260504180512 28 255 16.5 19.1 0.00 0.00 0.00 89 1018.8
20260504180010 28 227 14.8 15.6 0.00 0.00 0.00 91 1019.3
20260504175507 28 202 10.4 13.9 0.00 0.00 0.00 90 1019.0
20260504175004 28 240 14.8 15.6 0.00 0.00 0.00 91 1019.3
20260504174502 27 240 13.0 14.8 0.00 0.00 0.00 90 1019.4
20260504173959 27 254 10.4 11.3 0.00 0.00 0.00 87 1019.3
20260504173455 28 255 14.8 15.6 0.00 0.00 0.00 86 1019.0
20260504172953 29 259 19.1 20.0 0.00 0.00 0.00 83 1019.1
20260504172448 30 247 14.8 17.4 0.00 0.00 0.00 76 1019.3
20260504171945 30 285 14.8 15.6 0.00 0.00 0.00 73 1019.1
20260504171443 30 275 18.2 19.1 0.00 0.00 0.00 74 1019.0
20260504170939 30 291 16.5 20.0 0.00 0.00 0.00 72 1019.0
20260504170436 30 295 13.9 15.6 0.00 0.00 0.00 71 1019.1
20260504160355 30 253 9.6 11.3 0.00 0.00 0.00 74 1019.3
20260504150820 28 258 13.0 13.0 0.00 0.00 0.00 79 1019.7
20260504150316 28 228 13.9 15.6 0.00 0.00 0.00 79 1019.7
20260504141246 27 266 12.2 13.0 0.00 0.00 0.00 80 1019.8
20260504140742 27 281 15.6 17.4 0.00 0.00 0.00 80 1019.7
20260504140238 28 295 13.9 14.8 0.00 0.00 0.00 78 1019.5
20260504130707 27 261 13.0 13.9 0.00 0.00 0.00 74 1019.3
20260504130203 27 283 12.2 13.0 0.00 0.00 0.00 73 1019.1
20260504120127 28 248 17.4 18.2 0.00 0.00 0.00 61 1019.1
20260504110554 29 281 10.4 11.3 0.00 0.00 0.00 56 1019.3
20260504100516 29 261 9.6 9.6 0.00 0.00 0.00 57 1019.0
20260504081909 30 267 13.9 14.8 0.00 0.00 0.00 56 1019.8
20260504081406 30 265 15.6 18.2 0.00 0.00 0.00 57 1020.0
20260504080902 30 261 12.2 13.9 0.00 0.00 0.00 57 1020.4
20260504080359 30 261 14.8 14.8 0.00 0.00 0.00 57 1020.1
20260504070326 30 264 14.8 15.6 0.00 0.00 0.00 58 1021.0
20260504060247 30 256 9.6 9.6 0.00 0.00 0.00 59 1021.3
20260504050715 31 272 7.8 7.8 0.00 0.00 0.00 57 1021.6
20260504050212 31 295 10.4 11.3 0.00 0.00 0.00 56 1021.7
20260504045709 30 284 11.3 12.2 0.00 0.00 0.00 60 1021.9
20260504045209 31 299 10.4 12.2 0.00 0.00 0.00 58 1021.9
20260504044708 31 271 11.3 12.2 0.00 0.00 0.00 59 1022.0
20260504044204 31 272 13.9 14.8 0.00 0.00 0.00 59 1021.9
20260504043701 31 268 10.4 11.3 0.00 0.00 0.00 59 1022.2
20260504043158 31 256 9.6 11.3 0.00 0.00 0.00 60 1022.0
20260504042655 31 273 11.3 12.2 0.00 0.00 0.00 59 1022.0
20260504042152 31 261 7.8 8.7 0.00 0.00 0.00 59 1022.2
20260504041648 31 257 9.6 9.6 0.00 0.00 0.00 58 1022.3
20260504041144 31 276 9.6 9.6 0.00 0.00 0.00 58 1022.2
20260504040641 31 261 8.7 8.7 0.00 0.00 0.00 58 1022.5
20260504040138 31 274 7.8 8.7 0.00 0.00 0.00 58 1022.5
20260504035635 31 262 9.6 9.6 0.00 0.00 0.00 58 1022.3
20260504035131 31 263 10.4 11.3 0.00 0.00 0.00 57 1022.2
20260504034629 31 270 9.6 9.6 0.00 0.00 0.00 57 1022.2
20260504034126 31 262 9.6 9.6 0.00 0.00 0.00 57 1022.3
20260504033624 31 278 9.6 9.6 0.00 0.00 0.00 57 1022.0
20260504033121 31 285 8.7 9.6 0.00 0.00 0.00 57 1022.7
20260504032618 31 278 7.0 7.8 0.00 0.00 0.00 57 1022.5
20260504032115 31 283 7.8 7.8 0.00 0.00 0.00 57 1022.3
20260504031612 32 282 8.7 8.7 0.00 0.00 0.00 56 1022.5
20260504031108 31 282 9.6 9.6 0.00 0.00 0.00 57 1022.5
20260504030605 32 278 9.6 11.3 0.00 0.00 0.00 56 1022.3
20260504030101 32 280 12.2 13.0 0.00 0.00 0.00 56 1022.0
20260504025558 31 238 13.0 13.9 0.00 0.00 0.00 56 1022.2
20260504025055 31 330 13.0 13.9 0.00 0.00 0.00 56 1022.2
20260504024552 31 253 11.3 12.2 0.00 0.00 0.00 57 1022.2
20260504024049 31 76 12.2 13.0 0.00 0.00 0.00 57 1021.9
20260504023546 31 145 14.8 15.6 0.00 0.00 0.00 57 1022.0
20260504023042 31 319 9.6 9.6 0.00 0.00 0.00 60 1022.0
20260504022537 31 344 8.7 8.7 0.00 0.00 0.00 60 1022.2
20260504022034 31 341 12.2 13.0 0.00 0.00 0.00 60 1022.3
20260504021532 31 325 8.7 9.6 0.00 0.00 0.00 60 1022.5
20260504021028 31 348 10.4 12.2 0.00 0.00 0.00 60 1022.2
20260504020525 31 339 13.0 13.9 0.00 0.00 0.00 59 1022.0
20260504020022 31 321 14.8 15.6 0.00 0.00 0.00 60 1021.9
20260504015518 31 352 13.0 13.9 0.00 0.00 0.00 61 1022.3
20260504015014 31 279 13.0 13.9 0.00 0.00 0.00 62 1022.0
20260504014510 31 346 11.3 12.2 0.00 0.00 0.00 61 1022.3
20260504014008 31 359 12.2 13.9 0.00 0.00 0.00 61 1022.0
20260504013506 31 352 13.0 13.9 0.00 0.00 0.00 60 1022.2
20260504013001 32 356 18.2 19.1 0.00 0.00 0.00 58 1021.9
20260504012500 33 282 11.3 12.2 0.00 0.00 0.00 53 1021.7
20260504011957 33 312 13.0 14.8 0.00 0.00 0.00 54 1022.0
20260504011454 33 334 11.3 12.2 0.00 0.00 0.00 53 1022.0
20260504010949 33 293 11.3 11.3 0.00 0.00 0.00 53 1021.7
20260504010446 33 124 12.2 13.0 0.00 0.00 0.00 56 1021.9
20260504005942 33 343 19.1 21.7 0.00 0.00 0.00 54 1022.0
20260504005439 33 318 13.0 13.9 0.00 0.00 0.00 53 1022.2
20260504004936 34 275 15.6 18.2 0.00 0.00 0.00 50 1021.9